When you browse on this site, cookies collect data to enhance your experience and personalize the content and advertising you see.
Visit our Privacy Policy to learn more. By continuing to use the site, you agree to this use of cookies and data.
  • In Spain
  • List of Countries
  • For 7 days
  • Water Temperature
  • Weather Map
  • Weather Widgets
  • user-avatar
    Login

    Hourly Weather Portalegre

    Today, 1 June, Monday

    Time Temperature Precipitation Wind Pressure Humidity
    00:00 +19°C° 0 mm 1 mps 720 mmHg 82%
    01:00 +19°C° 0 mm 1 mps 720 mmHg 84%
    02:00 +18°C° 0 mm 1 mps 720 mmHg 85%
    03:00 +18°C° 0 mm 1 mps 720 mmHg 87%
    04:00 +18°C° 0 mm 1 mps 720 mmHg 87%
    05:00 +18°C° 0 mm 1 mps 720 mmHg 88%
    06:00 +18°C° 0 mm 1 mps 720 mmHg 87%
    07:00 +18°C° 0 mm 2 mps 721 mmHg 80%
    08:00 +20°C° 0 mm 3 mps 721 mmHg 73%
    09:00 +21°C° 0 mm 4 mps 722 mmHg 65%
    10:00 +22°C° 0 mm 3 mps 722 mmHg 62%
    11:00 +22°C° 0 mm 3 mps 721 mmHg 59%
    12:00 +24°C° 0 mm 3 mps 721 mmHg 56%
    13:00 +25°C° 0 mm 3 mps 721 mmHg 55%
    14:00 +25°C° 0 mm 3 mps 722 mmHg 53%
    15:00 +26°C° 0 mm 3 mps 722 mmHg 51%
    16:00 +26°C° 0 mm 3 mps 721 mmHg 51%
    17:00 +26°C° 0 mm 2 mps 721 mmHg 51%
    18:00 +26°C° 0 mm 2 mps 721 mmHg 51%
    19:00 +24°C° 0 mm 2 mps 721 mmHg 57%
    20:00 +21°C° 0 mm 2 mps 721 mmHg 63%
    21:00 +20°C° 0 mm 1 mps 722 mmHg 69%
    22:00 +20°C° 0 mm 1 mps 722 mmHg 72%
    23:00 +19°C° 0 mm 1 mps 721 mmHg 74%

    Tomorrow, 2 June, Tuesday

    Time Temperature Precipitation Wind Pressure Humidity
    00:00 +18°C° 0 mm 1 mps 721 mmHg 77%
    01:00 +18°C° 0 mm 1 mps 721 mmHg 81%
    02:00 +16°C° 0 mm 1 mps 721 mmHg 86%
    03:00 +15°C° 0 mm 2 mps 720 mmHg 90%
    04:00 +15°C° 0 mm 1 mps 721 mmHg 91%
    05:00 +15°C° 0 mm 1 mps 721 mmHg 92%
    06:00 +15°C° 0 mm 1 mps 721 mmHg 93%
    07:00 +17°C° 0 mm 2 mps 722 mmHg 85%
    08:00 +18°C° 0 mm 2 mps 722 mmHg 77%
    09:00 +20°C° 0 mm 2 mps 722 mmHg 70%
    10:00 +21°C° 0 mm 2 mps 722 mmHg 64%
    11:00 +23°C° 0 mm 2 mps 722 mmHg 58%
    12:00 +25°C° 0 mm 2 mps 722 mmHg 53%
    13:00 +25°C° 0 mm 2 mps 722 mmHg 50%
    14:00 +26°C° 0 mm 2 mps 722 mmHg 47%
    15:00 +27°C° 0 mm 3 mps 722 mmHg 44%
    16:00 +26°C° 0 mm 3 mps 721 mmHg 48%
    17:00 +25°C° 0 mm 3 mps 721 mmHg 51%
    18:00 +24°C° 0 mm 3 mps 721 mmHg 54%
    19:00 +22°C° 0 mm 3 mps 721 mmHg 62%
    20:00 +20°C° 0 mm 3 mps 721 mmHg 69%
    21:00 +18°C° 0 mm 2 mps 721 mmHg 77%
    22:00 +17°C° 0 mm 2 mps 721 mmHg 81%
    23:00 +16°C° 0 mm 2 mps 721 mmHg 85%

    Day after tomorrow, 3 June, Wednesday

    Time Temperature Precipitation Wind Pressure Humidity
    00:00 +16°C° 0 mm 1 mps 721 mmHg 89%
    01:00 +15°C° 0 mm 1 mps 721 mmHg 90%
    02:00 +15°C° 0 mm 1 mps 720 mmHg 90%
    03:00 +15°C° 0 mm 1 mps 720 mmHg 91%
    04:00 +15°C° 0 mm 1 mps 720 mmHg 90%
    05:00 +15°C° 0 mm 1 mps 720 mmHg 89%
    06:00 +15°C° 0 mm 1 mps 720 mmHg 88%
    07:00 +17°C° 0 mm 2 mps 720 mmHg 78%
    08:00 +19°C° 0 mm 2 mps 721 mmHg 68%
    09:00 +21°C° 0 mm 3 mps 721 mmHg 58%
    10:00 +22°C° 0 mm 3 mps 721 mmHg 53%
    11:00 +25°C° 0 mm 3 mps 721 mmHg 49%
    12:00 +26°C° 0 mm 4 mps 720 mmHg 45%
    13:00 +26°C° 0 mm 4 mps 720 mmHg 44%
    14:00 +27°C° 0 mm 4 mps 720 mmHg 43%
    15:00 +27°C° 0 mm 5 mps 720 mmHg 42%
    16:00 +27°C° 0 mm 5 mps 719 mmHg 45%
    17:00 +26°C° 0 mm 4 mps 719 mmHg 48%
    18:00 +25°C° 0 mm 4 mps 718 mmHg 51%
    19:00 +22°C° 0 mm 4 mps 719 mmHg 57%
    20:00 +20°C° 0 mm 3 mps 719 mmHg 64%
    21:00 +18°C° 0 mm 3 mps 719 mmHg 70%
    22:00 +17°C° 0 mm 3 mps 719 mmHg 75%
    23:00 +16°C° 0 mm 2 mps 719 mmHg 79%

    4 June, Thursday

    Time Temperature Precipitation Wind Pressure Humidity
    00:00 +15°C° 0 mm 2 mps 718 mmHg 83%
    01:00 +15°C° 0 mm 2 mps 718 mmHg 86%
    02:00 +14°C° 0 mm 2 mps 718 mmHg 88%
    03:00 +14°C° 0 mm 2 mps 717 mmHg 91%
    04:00 +14°C° 0 mm 2 mps 717 mmHg 90%
    05:00 +14°C° 0 mm 2 mps 717 mmHg 90%
    06:00 +14°C° 0 mm 2 mps 717 mmHg 89%
    07:00 +16°C° 0 mm 2 mps 718 mmHg 80%
    08:00 +18°C° 0 mm 3 mps 718 mmHg 71%
    09:00 +20°C° 0 mm 3 mps 719 mmHg 62%
    10:00 +22°C° 0 mm 4 mps 719 mmHg 57%
    11:00 +23°C° 0 mm 4 mps 719 mmHg 52%
    12:00 +26°C° 0 mm 4 mps 719 mmHg 47%
    13:00 +26°C° 0 mm 4 mps 719 mmHg 46%
    14:00 +27°C° 0 mm 4 mps 718 mmHg 45%
    15:00 +27°C° 0 mm 4 mps 718 mmHg 44%
    16:00 +27°C° 0 mm 4 mps 718 mmHg 47%
    17:00 +26°C° 0 mm 4 mps 718 mmHg 49%
    18:00 +25°C° 0 mm 4 mps 718 mmHg 52%
    19:00 +22°C° 0 mm 4 mps 719 mmHg 57%
    20:00 +20°C° 0 mm 3 mps 719 mmHg 63%
    21:00 +18°C° 0 mm 2 mps 719 mmHg 68%
    22:00 +17°C° 0 mm 2 mps 719 mmHg 68%
    23:00 +16°C° 0 mm 2 mps 719 mmHg 67%

    5 June, Friday

    Time Temperature Precipitation Wind Pressure Humidity
    00:00 +15°C° 0 mm 1 mps 719 mmHg 67%
    01:00 +15°C° 0 mm 1 mps 719 mmHg 68%
    02:00 +14°C° 0 mm 1 mps 719 mmHg 69%
    03:00 +14°C° 0 mm 1 mps 719 mmHg 69%
    04:00 +14°C° 0 mm 1 mps 719 mmHg 70%
    05:00 +14°C° 0 mm 1 mps 719 mmHg 70%
    06:00 +14°C° 0 mm 1 mps 720 mmHg 71%
    07:00 +16°C° 0 mm 1 mps 720 mmHg 61%
    08:00 +18°C° 0 mm 2 mps 721 mmHg 52%
    09:00 +21°C° 0 mm 2 mps 721 mmHg 42%
    10:00 +23°C° 0 mm 2 mps 721 mmHg 40%
    11:00 +25°C° 0 mm 3 mps 721 mmHg 38%
    12:00 +26°C° 0 mm 3 mps 721 mmHg 36%
    13:00 +27°C° 0 mm 3 mps 721 mmHg 35%
    14:00 +27°C° 0 mm 3 mps 721 mmHg 34%
    15:00 +28°C° 0 mm 3 mps 720 mmHg 33%
    16:00 +27°C° 0 mm 3 mps 720 mmHg 35%
    17:00 +27°C° 0 mm 3 mps 720 mmHg 38%
    18:00 +26°C° 0 mm 3 mps 720 mmHg 40%
    19:00 +24°C° 0 mm 3 mps 720 mmHg 48%
    20:00 +20°C° 0 mm 3 mps 720 mmHg 56%
    21:00 +18°C° 0 mm 2 mps 720 mmHg 64%
    22:00 +17°C° 0 mm 2 mps 720 mmHg 66%
    23:00 +16°C° 0 mm 2 mps 720 mmHg 69%

    6 June, Saturday

    Time Temperature Precipitation Wind Pressure Humidity
    00:00 +15°C° 0 mm 1 mps 720 mmHg 71%
    01:00 +15°C° 0 mm 1 mps 720 mmHg 72%
    02:00 +14°C° 0 mm 1 mps 720 mmHg 73%
    03:00 +14°C° 0 mm 1 mps 720 mmHg 75%
    04:00 +14°C° 0 mm 1 mps 720 mmHg 75%
    05:00 +13°C° 0 mm 0 mps 720 mmHg 76%
    06:00 +13°C° 0 mm 0 mps 720 mmHg 77%
    07:00 +18°C° 0 mm 1 mps 720 mmHg 68%
    08:00 +20°C° 0 mm 1 mps 720 mmHg 59%
    09:00 +21°C° 0 mm 2 mps 721 mmHg 50%
    10:00 +23°C° 0 mm 2 mps 721 mmHg 46%
    11:00 +25°C° 0 mm 3 mps 721 mmHg 43%
    12:00 +26°C° 0 mm 4 mps 721 mmHg 40%
    13:00 +25°C° 0 mm 4 mps 721 mmHg 45%
    14:00 +22°C° 0 mm 5 mps 720 mmHg 50%
    15:00 +21°C° 0 mm 5 mps 720 mmHg 56%
    16:00 +20°C° 0.2 mm 5 mps 720 mmHg 61%
    17:00 +19°C° 0.2 mm 5 mps 720 mmHg 66%
    18:00 +18°C° 0.2 mm 4 mps 720 mmHg 71%
    19:00 +17°C° 0 mm 4 mps 720 mmHg 76%
    20:00 +14°C° 0 mm 3 mps 720 mmHg 82%
    21:00 +14°C° 0 mm 2 mps 721 mmHg 88%
    22:00 +13°C° 0 mm 2 mps 721 mmHg 90%
    23:00 +13°C° 0 mm 2 mps 721 mmHg 92%
    Show more